| time (UTC) | temp F | wind direction | speed MPH | gust MPH | rain 1hr in | rain 24hr in | rain mn in | humidity % | barometer mb |
| 20260906005109 | 68 | 40 | 2.0 | 2.0 | 0.00 | 0.00 | 0.00 | 84 | 1008.8 |
| 20260906004608 | 68 | 28 | 1.0 | 1.0 | 0.00 | 0.00 | 0.00 | 84 | 1008.7 |
| 20260906004103 | 68 | 14 | 1.0 | 1.0 | 0.00 | 0.00 | 0.00 | 83 | 1008.6 |
| 20260906003559 | 68 | 41 | 1.0 | 1.0 | 0.00 | 0.00 | 0.00 | 83 | 1008.7 |
| 20260906003054 | 68 | 57 | 0.0 | 0.0 | 0.00 | 0.00 | 0.00 | 83 | 1008.7 |
| 20260906002549 | 68 | 30 | 0.0 | 0.0 | 0.00 | 0.00 | 0.00 | 82 | 1008.4 |
| 20260906002043 | 68 | 38 | 1.0 | 2.0 | 0.00 | 0.00 | 0.00 | 83 | 1008.5 |
| 20260906001539 | 68 | 30 | 1.0 | 2.0 | 0.00 | 0.00 | 0.00 | 83 | 1008.4 |
| 20260906001033 | 68 | 24 | 2.0 | 2.0 | 0.00 | 0.00 | 0.00 | 83 | 1008.3 |
| 20260906000530 | 68 | 25 | 1.0 | 1.0 | 0.00 | 0.00 | 0.00 | 83 | 1008.3 |
| 20260906000024 | 68 | 28 | 0.0 | 1.0 | 0.00 | 0.00 | 0.00 | 82 | 1008.2 |
| 20260905235013 | 69 | 20 | 1.0 | 2.0 | 0.00 | 0.00 | 0.00 | 81 | 1008.0 |
| 20260905234508 | 69 | 38 | 1.0 | 1.0 | 0.00 | 0.00 | 0.00 | 81 | 1008.2 |
| 20260905234003 | 69 | 12 | 1.0 | 2.0 | 0.00 | 0.00 | 0.00 | 80 | 1008.1 |
| 20260905233458 | 69 | 26 | 1.0 | 1.0 | 0.00 | 0.00 | 0.00 | 80 | 1008.1 |
| 20260905232956 | 69 | 24 | 2.0 | 2.0 | 0.00 | 0.00 | 0.00 | 79 | 1008.2 |
| 20260905232453 | 70 | 39 | 1.0 | 1.0 | 0.00 | 0.00 | 0.00 | 78 | 1008.0 |
| 20260905231949 | 70 | 13 | 1.0 | 1.0 | 0.00 | 0.00 | 0.00 | 78 | 1007.8 |
| 20260905231444 | 70 | 9 | 1.0 | 2.0 | 0.00 | 0.00 | 0.00 | 77 | 1008.0 |
| 20260905230940 | 71 | 11 | 1.0 | 1.0 | 0.00 | 0.00 | 0.00 | 76 | 1007.9 |
| 20260905230439 | 71 | 8 | 2.0 | 2.0 | 0.00 | 0.00 | 0.00 | 75 | 1007.8 |
| 20260905225937 | 71 | 12 | 2.0 | 2.0 | 0.00 | 0.00 | 0.00 | 74 | 1007.9 |
| 20260905225433 | 71 | 12 | 1.0 | 2.0 | 0.00 | 0.00 | 0.00 | 75 | 1007.8 |
| 20260905224927 | 71 | 26 | 2.0 | 2.0 | 0.00 | 0.00 | 0.00 | 74 | 1007.6 |
| 20260905224423 | 71 | 44 | 1.0 | 1.0 | 0.00 | 0.00 | 0.00 | 74 | 1007.8 |
| 20260905223916 | 72 | 15 | 2.0 | 2.0 | 0.00 | 0.00 | 0.00 | 75 | 1007.8 |
| 20260905223415 | 72 | 39 | 1.0 | 1.0 | 0.00 | 0.00 | 0.00 | 75 | 1007.6 |
| 20260905222909 | 73 | 12 | 2.0 | 2.0 | 0.00 | 0.00 | 0.00 | 72 | 1007.7 |
| 20260905222408 | 73 | 26 | 2.0 | 2.0 | 0.00 | 0.00 | 0.00 | 72 | 1007.4 |
| 20260905221904 | 73 | 53 | 0.0 | 0.0 | 0.00 | 0.00 | 0.00 | 73 | 1007.5 |
| 20260905221401 | 74 | 29 | 1.0 | 1.0 | 0.00 | 0.00 | 0.00 | 73 | 1007.5 |
| 20260905220856 | 74 | 39 | 0.0 | 1.0 | 0.00 | 0.00 | 0.00 | 72 | 1007.4 |
| 20260905220352 | 74 | 61 | 0.0 | 0.0 | 0.00 | 0.00 | 0.00 | 71 | 1007.5 |
| 20260905215851 | 74 | 16 | 1.0 | 1.0 | 0.00 | 0.00 | 0.00 | 72 | 1007.4 |
| 20260905215347 | 74 | 44 | 0.0 | 1.0 | 0.00 | 0.00 | 0.00 | 71 | 1007.1 |
| 20260905214844 | 74 | 8 | 1.0 | 1.0 | 0.00 | 0.00 | 0.00 | 70 | 1007.4 |
| 20260905214338 | 74 | 26 | 3.0 | 3.0 | 0.00 | 0.00 | 0.00 | 69 | 1007.3 |
| 20260905213833 | 74 | 22 | 1.0 | 1.0 | 0.00 | 0.00 | 0.00 | 69 | 1007.5 |
| 20260905213329 | 75 | 32 | 1.0 | 2.0 | 0.00 | 0.00 | 0.00 | 67 | 1007.5 |
| 20260905212819 | 75 | 28 | 3.0 | 5.0 | 0.00 | 0.00 | 0.00 | 66 | 1007.3 |
| 20260905212319 | 75 | 22 | 2.0 | 2.0 | 0.00 | 0.00 | 0.00 | 65 | 1007.3 |
| 20260905211819 | 75 | 1 | 2.0 | 3.0 | 0.00 | 0.00 | 0.00 | 66 | 1007.1 |
| 20260905211314 | 75 | 9 | 3.0 | 3.0 | 0.00 | 0.00 | 0.00 | 65 | 1007.3 |
| 20260905210811 | 76 | 5 | 2.0 | 2.0 | 0.00 | 0.00 | 0.00 | 68 | 1007.2 |
| 20260905210310 | 76 | 17 | 2.0 | 2.0 | 0.00 | 0.00 | 0.00 | 66 | 1007.2 |
| 20260905205809 | 76 | 348 | 1.0 | 2.0 | 0.00 | 0.00 | 0.00 | 66 | 1007.2 |
| 20260905205306 | 76 | 20 | 1.0 | 1.0 | 0.00 | 0.00 | 0.00 | 67 | 1007.0 |
| 20260905204803 | 75 | 9 | 3.0 | 3.0 | 0.00 | 0.00 | 0.00 | 66 | 1007.1 |
| 20260905204259 | 75 | 37 | 3.0 | 3.0 | 0.00 | 0.00 | 0.00 | 66 | 1006.8 |
| 20260905203758 | 76 | 22 | 4.0 | 5.0 | 0.00 | 0.00 | 0.00 | 64 | 1006.9 |
| 20260905203254 | 76 | 15 | 4.0 | 5.0 | 0.00 | 0.00 | 0.00 | 66 | 1006.7 |
| 20260905202749 | 76 | 342 | 3.0 | 3.0 | 0.00 | 0.00 | 0.00 | 68 | 1007.1 |
| 20260905202244 | 75 | 7 | 2.0 | 2.0 | 0.00 | 0.00 | 0.00 | 67 | 1006.9 |
| 20260905201740 | 76 | 6 | 2.0 | 3.0 | 0.00 | 0.00 | 0.00 | 65 | 1007.1 |
| 20260905201235 | 76 | 21 | 3.0 | 3.0 | 0.00 | 0.00 | 0.00 | 65 | 1007.0 |
| 20260905200730 | 76 | 1 | 2.0 | 2.0 | 0.00 | 0.00 | 0.00 | 64 | 1006.9 |
| 20260905200226 | 77 | 13 | 2.0 | 2.0 | 0.00 | 0.00 | 0.00 | 64 | 1007.0 |
| 20260905195723 | 77 | 133 | 1.0 | 2.0 | 0.00 | 0.00 | 0.00 | 61 | 1006.9 |
| 20260905195218 | 76 | 13 | 2.0 | 3.0 | 0.00 | 0.00 | 0.00 | 63 | 1007.0 |
| 20260905194714 | 76 | 6 | 2.0 | 2.0 | 0.00 | 0.00 | 0.00 | 62 | 1007.1 |
| 20260905194213 | 77 | 16 | 1.0 | 1.0 | 0.00 | 0.00 | 0.00 | 64 | 1007.0 |
| 20260905193708 | 77 | 36 | 4.0 | 5.0 | 0.00 | 0.00 | 0.00 | 60 | 1007.0 |
| 20260905193203 | 76 | 5 | 2.0 | 2.0 | 0.00 | 0.00 | 0.00 | 65 | 1006.9 |
| 20260905192658 | 76 | 10 | 5.0 | 7.0 | 0.00 | 0.00 | 0.00 | 63 | 1007.0 |
| 20260905192155 | 77 | 31 | 2.0 | 2.0 | 0.00 | 0.00 | 0.00 | 64 | 1007.1 |
| 20260905191654 | 77 | 7 | 3.0 | 5.0 | 0.00 | 0.00 | 0.00 | 62 | 1006.9 |
| 20260905191152 | 76 | 21 | 2.0 | 2.0 | 0.00 | 0.00 | 0.00 | 64 | 1006.8 |
| 20260905190651 | 77 | 5 | 1.0 | 2.0 | 0.00 | 0.00 | 0.00 | 65 | 1006.8 |
| 20260905190150 | 77 | 14 | 2.0 | 2.0 | 0.00 | 0.00 | 0.00 | 64 | 1007.1 |
| 20260905185649 | 77 | 20 | 1.0 | 2.0 | 0.00 | 0.00 | 0.00 | 65 | 1007.0 |
| 20260905185144 | 76 | 28 | 4.0 | 5.0 | 0.00 | 0.00 | 0.00 | 64 | 1007.1 |
| 20260905184643 | 76 | 26 | 1.0 | 2.0 | 0.00 | 0.00 | 0.00 | 67 | 1007.2 |
| 20260905184142 | 77 | 6 | 4.0 | 5.0 | 0.00 | 0.00 | 0.00 | 64 | 1007.2 |
| 20260905183642 | 77 | 10 | 3.0 | 3.0 | 0.00 | 0.00 | 0.00 | 63 | 1007.3 |
| 20260905183137 | 77 | 26 | 2.0 | 2.0 | 0.00 | 0.00 | 0.00 | 66 | 1007.1 |
| 20260905182636 | 78 | 20 | 3.0 | 3.0 | 0.00 | 0.00 | 0.00 | 62 | 1007.3 |
| 20260905182131 | 77 | 11 | 1.0 | 2.0 | 0.00 | 0.00 | 0.00 | 65 | 1007.1 |
| 20260905181626 | 77 | 7 | 3.0 | 3.0 | 0.00 | 0.00 | 0.00 | 63 | 1007.2 |
| 20260905181125 | 77 | 24 | 2.0 | 2.0 | 0.00 | 0.00 | 0.00 | 64 | 1007.4 |
| 20260905180620 | 77 | 3 | 3.0 | 3.0 | 0.00 | 0.00 | 0.00 | 67 | 1007.3 |
| 20260905180115 | 77 | 23 | 1.0 | 2.0 | 0.00 | 0.00 | 0.00 | 69 | 1007.3 |
| 20260905175614 | 77 | 19 | 2.0 | 3.0 | 0.00 | 0.00 | 0.00 | 70 | 1007.3 |
| 20260905175110 | 76 | 350 | 3.0 | 3.0 | 0.00 | 0.00 | 0.00 | 66 | 1007.4 |
| 20260905174605 | 76 | 352 | 2.0 | 2.0 | 0.00 | 0.00 | 0.00 | 68 | 1007.6 |
| 20260905174101 | 76 | 37 | 2.0 | 2.0 | 0.00 | 0.00 | 0.00 | 69 | 1007.5 |
| 20260905173557 | 75 | 18 | 1.0 | 1.0 | 0.00 | 0.00 | 0.00 | 71 | 1007.8 |
| 20260905173052 | 77 | 66 | 1.0 | 1.0 | 0.00 | 0.00 | 0.00 | 66 | 1007.8 |
| 20260905172551 | 77 | 21 | 2.0 | 2.0 | 0.00 | 0.00 | 0.00 | 68 | 1007.7 |
| 20260905172046 | 77 | 349 | 1.0 | 2.0 | 0.00 | 0.00 | 0.00 | 67 | 1007.7 |
| 20260905171543 | 75 | 3 | 1.0 | 2.0 | 0.00 | 0.00 | 0.00 | 72 | 1007.9 |
| 20260905171038 | 76 | 24 | 1.0 | 2.0 | 0.00 | 0.00 | 0.00 | 70 | 1007.9 |
| 20260905170535 | 76 | 357 | 2.0 | 2.0 | 0.00 | 0.00 | 0.00 | 70 | 1007.8 |
| 20260905170030 | 77 | 352 | 4.0 | 5.0 | 0.00 | 0.00 | 0.00 | 70 | 1007.8 |
| 20260905165524 | 74 | 13 | 1.0 | 1.0 | 0.00 | 0.00 | 0.00 | 72 | 1007.9 |
| 20260905165020 | 73 | 50 | 0.0 | 1.0 | 0.00 | 0.00 | 0.00 | 74 | 1008.0 |
| 20260905164514 | 73 | 12 | 2.0 | 2.0 | 0.00 | 0.00 | 0.00 | 73 | 1007.8 |
| 20260905164009 | 75 | 2 | 1.0 | 2.0 | 0.00 | 0.00 | 0.00 | 74 | 1007.9 |
| 20260905163505 | 74 | 9 | 2.0 | 2.0 | 0.00 | 0.00 | 0.00 | 75 | 1007.9 |
| 20260905163001 | 73 | 0 | 2.0 | 2.0 | 0.00 | 0.00 | 0.00 | 75 | 1007.8 |
| 20260905162456 | 74 | 19 | 2.0 | 2.0 | 0.00 | 0.00 | 0.00 | 74 | 1007.8 |
| 20260905161951 | 74 | 4 | 2.0 | 2.0 | 0.00 | 0.00 | 0.00 | 73 | 1008.0 |
| 20260905161450 | 73 | 52 | 0.0 | 1.0 | 0.00 | 0.00 | 0.00 | 78 | 1007.6 |
| 20260905160949 | 74 | 41 | 1.0 | 1.0 | 0.00 | 0.00 | 0.00 | 72 | 1008.0 |
| 20260905160442 | 73 | 25 | 3.0 | 5.0 | 0.00 | 0.00 | 0.00 | 73 | 1007.8 |
| 20260905155941 | 73 | 31 | 3.0 | 3.0 | 0.00 | 0.00 | 0.00 | 74 | 1008.0 |
| 20260905155437 | 74 | 8 | 2.0 | 2.0 | 0.00 | 0.00 | 0.00 | 73 | 1008.1 |
| 20260905154935 | 75 | 16 | 1.0 | 2.0 | 0.00 | 0.00 | 0.00 | 72 | 1007.8 |
| 20260905154431 | 74 | 356 | 2.0 | 2.0 | 0.00 | 0.00 | 0.00 | 75 | 1007.8 |
| 20260905153926 | 73 | 341 | 3.0 | 3.0 | 0.00 | 0.00 | 0.00 | 74 | 1007.7 |
| 20260905153423 | 73 | 70 | 3.0 | 3.0 | 0.00 | 0.00 | 0.00 | 72 | 1007.9 |
| 20260905152922 | 73 | 28 | 2.0 | 3.0 | 0.00 | 0.00 | 0.00 | 72 | 1007.9 |
| 20260905152421 | 73 | 62 | 1.0 | 2.0 | 0.00 | 0.00 | 0.00 | 74 | 1007.8 |
| 20260905151917 | 73 | 62 | 1.0 | 1.0 | 0.00 | 0.00 | 0.00 | 74 | 1008.2 |
| 20260905151413 | 71 | 72 | 1.0 | 1.0 | 0.00 | 0.00 | 0.00 | 77 | 1008.1 |
| 20260905150913 | 71 | 9 | 2.0 | 3.0 | 0.00 | 0.00 | 0.00 | 77 | 1008.0 |
| 20260905150407 | 70 | 24 | 3.0 | 5.0 | 0.00 | 0.00 | 0.00 | 77 | 1008.2 |
| 20260905145904 | 70 | 10 | 3.0 | 3.0 | 0.00 | 0.00 | 0.00 | 78 | 1008.1 |
| 20260905145358 | 70 | 17 | 3.0 | 3.0 | 0.00 | 0.00 | 0.00 | 79 | 1008.0 |
| 20260905144858 | 70 | 17 | 3.0 | 5.0 | 0.00 | 0.00 | 0.00 | 78 | 1007.9 |
| 20260905144353 | 70 | 1 | 3.0 | 3.0 | 0.00 | 0.00 | 0.00 | 77 | 1007.9 |
| 20260905143851 | 70 | 13 | 3.0 | 3.0 | 0.00 | 0.00 | 0.00 | 79 | 1007.9 |
| 20260905143346 | 70 | 49 | 1.0 | 2.0 | 0.00 | 0.00 | 0.00 | 78 | 1007.8 |
| 20260905142840 | 70 | 32 | 3.0 | 3.0 | 0.00 | 0.00 | 0.00 | 79 | 1008.0 |
| 20260905142338 | 69 | 42 | 3.0 | 3.0 | 0.00 | 0.00 | 0.00 | 78 | 1007.8 |
| 20260905141835 | 69 | 34 | 2.0 | 2.0 | 0.00 | 0.00 | 0.00 | 80 | 1007.6 |
| 20260905141330 | 69 | 24 | 3.0 | 3.0 | 0.00 | 0.00 | 0.00 | 82 | 1007.8 |
| 20260905140826 | 69 | 343 | 2.0 | 2.0 | 0.00 | 0.00 | 0.00 | 83 | 1007.9 |
| 20260905140326 | 69 | 0 | 2.0 | 3.0 | 0.00 | 0.00 | 0.00 | 85 | 1007.7 |
| 20260905135824 | 68 | 25 | 1.0 | 2.0 | 0.00 | 0.00 | 0.00 | 83 | 1007.8 |
| 20260905135320 | 68 | 22 | 3.0 | 3.0 | 0.00 | 0.00 | 0.00 | 84 | 1007.8 |
| 20260905134815 | 68 | 345 | 2.0 | 2.0 | 0.00 | 0.00 | 0.00 | 84 | 1007.8 |
| 20260905134308 | 68 | 11 | 2.0 | 2.0 | 0.00 | 0.00 | 0.00 | 84 | 1007.8 |
| 20260905133803 | 68 | 59 | 2.0 | 2.0 | 0.00 | 0.00 | 0.00 | 85 | 1007.9 |
| 20260905133258 | 68 | 28 | 1.0 | 2.0 | 0.00 | 0.00 | 0.00 | 85 | 1007.8 |
| 20260905132757 | 67 | 15 | 3.0 | 5.0 | 0.00 | 0.00 | 0.00 | 90 | 1007.7 |
| 20260905132253 | 67 | 63 | 0.0 | 0.0 | 0.00 | 0.00 | 0.00 | 90 | 1008.2 |
| 20260905131748 | 67 | 34 | 1.0 | 2.0 | 0.00 | 0.00 | 0.00 | 92 | 1008.0 |
| 20260905131243 | 66 | 47 | 0.0 | 0.0 | 0.00 | 0.00 | 0.00 | 92 | 1007.9 |
| 20260905130738 | 66 | 50 | 0.0 | 0.0 | 0.00 | 0.00 | 0.00 | 94 | 1008.0 |
| 20260905130237 | 66 | 57 | 0.0 | 0.0 | 0.00 | 0.00 | 0.00 | 93 | 1008.1 |
| 20260905125733 | 65 | 57 | 0.0 | 0.0 | 0.00 | 0.00 | 0.00 | 94 | 1008.2 |
| 20260905125228 | 65 | 42 | 0.0 | 0.0 | 0.00 | 0.00 | 0.00 | 95 | 1008.1 |
| 20260905124724 | 64 | 25 | 2.0 | 2.0 | 0.00 | 0.00 | 0.00 | 97 | 1008.0 |
| 20260905124220 | 64 | 43 | 1.0 | 1.0 | 0.00 | 0.00 | 0.00 | 97 | 1008.2 |
| 20260905123714 | 63 | 35 | 0.0 | 0.0 | 0.00 | 0.00 | 0.00 | 99 | 1008.0 |
| 20260905123212 | 62 | 64 | 0.0 | 0.0 | 0.00 | 0.00 | 0.00 | 99 | 1008.1 |
| 20260905122711 | 62 | 65 | 0.0 | 0.0 | 0.00 | 0.00 | 0.00 | 99 | 1008.3 |
| 20260905122206 | 62 | 63 | 0.0 | 0.0 | 0.00 | 0.00 | 0.00 | 99 | 1008.3 |
| 20260905121700 | 62 | 66 | 0.0 | 0.0 | 0.00 | 0.00 | 0.00 | 99 | 1008.3 |
| 20260905121156 | 62 | 39 | 0.0 | 0.0 | 0.00 | 0.00 | 0.00 | 99 | 1008.4 |
| 20260905120655 | 62 | 59 | 0.0 | 0.0 | 0.00 | 0.00 | 0.00 | 99 | 1008.2 |
| 20260905120150 | 62 | 59 | 0.0 | 0.0 | 0.00 | 0.00 | 0.00 | 99 | 1008.1 |
| 20260905115650 | 61 | 59 | 0.0 | 0.0 | 0.00 | 0.00 | 0.00 | 99 | 1008.1 |
| 20260905115145 | 61 | 59 | 0.0 | 0.0 | 0.00 | 0.00 | 0.00 | 99 | 1008.1 |
| 20260905114645 | 61 | 59 | 0.0 | 0.0 | 0.00 | 0.00 | 0.00 | 99 | 1008.2 |
| 20260905114143 | 60 | 59 | 0.0 | 0.0 | 0.00 | 0.00 | 0.00 | 99 | 1007.8 |
| 20260905113637 | 60 | 59 | 0.0 | 0.0 | 0.00 | 0.00 | 0.00 | 99 | 1008.1 |
| 20260905113133 | 60 | 66 | 0.0 | 0.0 | 0.00 | 0.00 | 0.00 | 99 | 1007.9 |
| 20260905112627 | 60 | 66 | 0.0 | 0.0 | 0.00 | 0.00 | 0.00 | 99 | 1008.1 |
| 20260905112124 | 60 | 66 | 0.0 | 0.0 | 0.00 | 0.00 | 0.00 | 99 | 1007.6 |
| 20260905111618 | 60 | 66 | 0.0 | 0.0 | 0.00 | 0.00 | 0.00 | 99 | 1007.5 |
| 20260905111117 | 60 | 66 | 0.0 | 0.0 | 0.00 | 0.00 | 0.00 | 99 | 1007.5 |
| 20260905110616 | 60 | 66 | 0.0 | 0.0 | 0.00 | 0.00 | 0.00 | 99 | 1007.4 |
| 20260905110112 | 60 | 66 | 0.0 | 0.0 | 0.00 | 0.00 | 0.00 | 99 | 1007.5 |
| 20260905105612 | 60 | 66 | 0.0 | 0.0 | 0.00 | 0.00 | 0.00 | 99 | 1007.5 |
| 20260905105111 | 60 | 59 | 0.0 | 0.0 | 0.00 | 0.00 | 0.00 | 99 | 1007.3 |
| 20260905104607 | 60 | 66 | 0.0 | 0.0 | 0.00 | 0.00 | 0.00 | 99 | 1007.2 |
| 20260905104107 | 60 | 66 | 0.0 | 0.0 | 0.00 | 0.00 | 0.00 | 99 | 1007.4 |
| 20260905103556 | 60 | 66 | 0.0 | 0.0 | 0.00 | 0.00 | 0.00 | 99 | 1007.3 |
| 20260905103053 | 0 | 0.0 | 0.0 | 0.00 | 0.00 | 0.00 | 1007.2 | ||
| 20260905102548 | 60 | 85 | 0.0 | 0.0 | 0.00 | 0.00 | 0.00 | 99 | 1007.2 |
| 20260905102045 | 60 | 85 | 0.0 | 0.0 | 0.00 | 0.00 | 0.00 | 99 | 1007.3 |
| 20260905101543 | 60 | 85 | 0.0 | 0.0 | 0.00 | 0.00 | 0.00 | 99 | 1007.2 |
| 20260905101041 | 60 | 58 | 0.0 | 0.0 | 0.00 | 0.00 | 0.00 | 99 | 1007.0 |
| 20260905100538 | 60 | 58 | 0.0 | 0.0 | 0.00 | 0.00 | 0.00 | 99 | 1007.0 |
| 20260905100037 | 60 | 58 | 0.0 | 0.0 | 0.00 | 0.00 | 0.00 | 99 | 1007.3 |
| 20260905095532 | 60 | 66 | 0.0 | 0.0 | 0.00 | 0.00 | 0.00 | 99 | 1006.9 |
| 20260905095027 | 60 | 66 | 0.0 | 0.0 | 0.00 | 0.00 | 0.00 | 99 | 1007.1 |
| 20260905094522 | 60 | 66 | 0.0 | 0.0 | 0.00 | 0.00 | 0.00 | 99 | 1007.0 |
| 20260905094021 | 60 | 66 | 0.0 | 0.0 | 0.00 | 0.00 | 0.00 | 99 | 1007.0 |
| 20260905093516 | 60 | 67 | 0.0 | 0.0 | 0.00 | 0.00 | 0.00 | 99 | 1006.7 |
| 20260905093013 | 60 | 66 | 0.0 | 0.0 | 0.00 | 0.00 | 0.00 | 99 | 1007.0 |
| 20260905092513 | 61 | 66 | 0.0 | 0.0 | 0.00 | 0.00 | 0.00 | 99 | 1006.9 |
| 20260905092008 | 61 | 66 | 0.0 | 0.0 | 0.00 | 0.00 | 0.00 | 99 | 1006.9 |
| 20260905091502 | 61 | 66 | 0.0 | 0.0 | 0.00 | 0.00 | 0.00 | 99 | 1007.0 |
| 20260905090956 | 61 | 66 | 0.0 | 0.0 | 0.00 | 0.00 | 0.00 | 99 | 1006.8 |
| 20260905090451 | 61 | 88 | 0.0 | 0.0 | 0.00 | 0.00 | 0.00 | 99 | 1007.0 |
| 20260905085950 | 61 | 66 | 0.0 | 0.0 | 0.00 | 0.00 | 0.00 | 99 | 1006.9 |
| 20260905085450 | 62 | 59 | 0.0 | 0.0 | 0.00 | 0.00 | 0.00 | 99 | 1007.2 |
| 20260905084946 | 62 | 66 | 0.0 | 0.0 | 0.00 | 0.00 | 0.00 | 99 | 1007.1 |
| 20260905084445 | 61 | 78 | 0.0 | 0.0 | 0.00 | 0.00 | 0.00 | 99 | 1006.9 |
| 20260905083940 | 61 | 77 | 0.0 | 0.0 | 0.00 | 0.00 | 0.00 | 99 | 1006.9 |
| 20260905083436 | 61 | 85 | 0.0 | 0.0 | 0.00 | 0.00 | 0.00 | 99 | 1006.8 |
| 20260905082931 | 61 | 84 | 0.0 | 0.0 | 0.00 | 0.00 | 0.00 | 99 | 1006.9 |
| 20260905082427 | 61 | 84 | 0.0 | 0.0 | 0.00 | 0.00 | 0.00 | 99 | 1007.1 |
| 20260905081922 | 62 | 85 | 0.0 | 0.0 | 0.00 | 0.00 | 0.00 | 99 | 1007.0 |
| 20260905081417 | 62 | 67 | 0.0 | 0.0 | 0.00 | 0.00 | 0.00 | 99 | 1006.8 |
| 20260905080915 | 62 | 59 | 0.0 | 0.0 | 0.00 | 0.00 | 0.00 | 99 | 1006.7 |
| 20260905080410 | 62 | 63 | 0.0 | 0.0 | 0.00 | 0.00 | 0.00 | 99 | 1007.0 |
| 20260905075909 | 62 | 67 | 0.0 | 0.0 | 0.00 | 0.00 | 0.00 | 99 | 1007.0 |
| 20260905075404 | 62 | 59 | 0.0 | 0.0 | 0.00 | 0.00 | 0.00 | 99 | 1007.0 |
| 20260905074903 | 62 | 55 | 0.0 | 0.0 | 0.00 | 0.00 | 0.00 | 98 | 1006.9 |
| 20260905074359 | 62 | 67 | 0.0 | 0.0 | 0.00 | 0.00 | 0.00 | 98 | 1006.9 |
| 20260905073854 | 62 | 67 | 0.0 | 0.0 | 0.00 | 0.00 | 0.00 | 98 | 1006.9 |
| 20260905073349 | 62 | 85 | 0.0 | 0.0 | 0.00 | 0.00 | 0.00 | 98 | 1007.0 |
| 20260905072844 | 63 | 88 | 0.0 | 0.0 | 0.00 | 0.00 | 0.00 | 98 | 1007.0 |
| 20260905072339 | 63 | 84 | 0.0 | 0.0 | 0.00 | 0.00 | 0.00 | 98 | 1006.7 |
| 20260905071835 | 64 | 67 | 0.0 | 0.0 | 0.00 | 0.00 | 0.00 | 98 | 1007.0 |
| 20260905071331 | 64 | 68 | 0.0 | 0.0 | 0.00 | 0.00 | 0.00 | 97 | 1007.0 |
| 20260905070825 | 64 | 67 | 0.0 | 0.0 | 0.00 | 0.00 | 0.00 | 97 | 1006.9 |
| 20260905070322 | 64 | 67 | 0.0 | 0.0 | 0.00 | 0.00 | 0.00 | 96 | 1006.9 |
| 20260905065821 | 64 | 55 | 0.0 | 0.0 | 0.00 | 0.00 | 0.00 | 95 | 1007.1 |
| 20260905065320 | 64 | 63 | 0.0 | 0.0 | 0.00 | 0.00 | 0.00 | 95 | 1007.2 |
| 20260905064815 | 65 | 59 | 0.0 | 0.0 | 0.00 | 0.00 | 0.00 | 95 | 1007.2 |
| 20260905064311 | 65 | 60 | 0.0 | 0.0 | 0.00 | 0.00 | 0.00 | 95 | 1007.1 |
| 20260905063809 | 65 | 39 | 1.0 | 1.0 | 0.00 | 0.00 | 0.00 | 95 | 1007.2 |
| 20260905063305 | 65 | 56 | 0.0 | 1.0 | 0.00 | 0.00 | 0.00 | 95 | 1007.1 |
| 20260905062801 | 64 | 59 | 0.0 | 0.0 | 0.00 | 0.00 | 0.00 | 96 | 1007.3 |
| 20260905062255 | 64 | 41 | 0.0 | 1.0 | 0.00 | 0.00 | 0.00 | 97 | 1007.4 |
| 20260905061749 | 64 | 34 | 1.0 | 1.0 | 0.00 | 0.00 | 0.00 | 98 | 1007.6 |
| 20260905061244 | 64 | 27 | 0.0 | 1.0 | 0.00 | 0.00 | 0.00 | 99 | 1007.5 |
| 20260905060738 | 64 | 18 | 0.0 | 1.0 | 0.00 | 0.00 | 0.00 | 99 | 1007.4 |
| 20260905060236 | 64 | 36 | 1.0 | 1.0 | 0.00 | 0.00 | 0.00 | 99 | 1007.5 |
| 20260905055734 | 65 | 63 | 0.0 | 0.0 | 0.00 | 0.00 | 0.00 | 99 | 1007.5 |
| 20260905055229 | 65 | 52 | 0.0 | 0.0 | 0.00 | 0.00 | 0.00 | 99 | 1007.6 |
| 20260905054724 | 65 | 45 | 0.0 | 1.0 | 0.00 | 0.00 | 0.00 | 99 | 1007.7 |
| 20260905054221 | 65 | 40 | 0.0 | 0.0 | 0.00 | 0.00 | 0.00 | 99 | 1007.6 |
| 20260905053719 | 66 | 63 | 0.0 | 0.0 | 0.00 | 0.00 | 0.00 | 99 | 1007.8 |
| 20260905053215 | 66 | 63 | 0.0 | 0.0 | 0.00 | 0.00 | 0.00 | 99 | 1007.8 |
| 20260905052709 | 66 | 64 | 0.0 | 0.0 | 0.00 | 0.00 | 0.00 | 99 | 1007.8 |
| 20260905052204 | 66 | 48 | 0.0 | 1.0 | 0.00 | 0.00 | 0.00 | 99 | 1007.8 |
| 20260905051704 | 66 | 45 | 0.0 | 1.0 | 0.00 | 0.00 | 0.00 | 99 | 1008.1 |
| 20260905051201 | 66 | 44 | 1.0 | 1.0 | 0.00 | 0.00 | 0.00 | 99 | 1008.0 |
| 20260905050657 | 66 | 39 | 0.0 | 1.0 | 0.00 | 0.00 | 0.00 | 99 | 1008.1 |
| 20260905050154 | 0 | 0.0 | 0.0 | 0.00 | 0.00 | 0.00 | 1008.1 | ||
| 20260905045653 | 66 | 72 | 0.0 | 0.0 | 0.00 | 0.00 | 0.00 | 99 | 1008.0 |
| 20260905045148 | 66 | 72 | 0.0 | 0.0 | 0.00 | 0.00 | 0.00 | 99 | 1008.2 |
| 20260905044643 | 66 | 72 | 0.0 | 0.0 | 0.00 | 0.00 | 0.00 | 99 | 1008.3 |
| 20260905044138 | 66 | 69 | 0.0 | 0.0 | 0.00 | 0.00 | 0.00 | 99 | 1008.2 |
| 20260905043636 | 66 | 72 | 0.0 | 0.0 | 0.00 | 0.00 | 0.00 | 99 | 1008.1 |
| 20260905043132 | 66 | 71 | 0.0 | 0.0 | 0.00 | 0.00 | 0.00 | 99 | 1008.2 |
| 20260905042631 | 66 | 71 | 0.0 | 0.0 | 0.00 | 0.00 | 0.00 | 99 | 1008.2 |
| 20260905042126 | 66 | 72 | 0.0 | 0.0 | 0.00 | 0.00 | 0.00 | 99 | 1008.2 |
| 20260905041621 | 66 | 72 | 0.0 | 0.0 | 0.00 | 0.00 | 0.00 | 99 | 1008.3 |
| 20260905041116 | 66 | 72 | 0.0 | 0.0 | 0.00 | 0.00 | 0.00 | 98 | 1008.4 |
| 20260905040611 | 0 | 0.0 | 0.0 | 0.00 | 0.00 | 0.00 | 1008.3 | ||
| 20260905040110 | 0 | 0.0 | 0.0 | 0.00 | 0.00 | 0.00 | 1008.4 | ||
| 20260905035605 | 66 | 69 | 0.0 | 0.0 | 0.00 | 0.50 | 0.50 | 99 | 1008.3 |
| 20260905035101 | 66 | 69 | 0.0 | 0.0 | 0.00 | 0.50 | 0.50 | 99 | 1008.5 |
| 20260905034557 | 66 | 69 | 0.0 | 0.0 | 0.00 | 0.50 | 0.50 | 99 | 1008.4 |
| 20260905034050 | 66 | 81 | 0.0 | 0.0 | 0.00 | 0.50 | 0.50 | 98 | 1008.5 |
| 20260905033544 | 66 | 72 | 0.0 | 0.0 | 0.00 | 0.50 | 0.50 | 98 | 1008.3 |
| 20260905033041 | 0 | 0.0 | 0.0 | 0.00 | 0.00 | 0.00 | 1008.4 | ||
| 20260905032535 | 0 | 0.0 | 0.0 | 0.00 | 0.00 | 0.00 | 1008.3 | ||
| 20260905032030 | 0 | 0.0 | 0.0 | 0.00 | 0.00 | 0.00 | 1008.3 | ||
| 20260905031526 | 0 | 0.0 | 0.0 | 0.00 | 0.00 | 0.00 | 1008.2 | ||
| 20260905031025 | 66 | 72 | 0.0 | 0.0 | 0.00 | 0.50 | 0.50 | 99 | 1008.1 |
| 20260905030520 | 66 | 72 | 0.0 | 0.0 | 0.00 | 0.50 | 0.50 | 99 | 1008.4 |
| 20260905030015 | 66 | 71 | 0.0 | 0.0 | 0.00 | 0.50 | 0.50 | 99 | 1008.5 |
| 20260905025510 | 66 | 64 | 0.0 | 0.0 | 0.00 | 0.50 | 0.50 | 99 | 1008.3 |
| 20260905025006 | 66 | 55 | 0.0 | 0.0 | 0.00 | 0.50 | 0.50 | 98 | 1008.2 |
| 20260905024501 | 66 | 48 | 0.0 | 0.0 | 0.00 | 0.50 | 0.50 | 98 | 1008.0 |
| 20260905023957 | 66 | 296 | 0.0 | 0.0 | 0.00 | 0.50 | 0.50 | 98 | 1008.1 |
| 20260905023451 | 67 | 72 | 0.0 | 0.0 | 0.00 | 0.50 | 0.50 | 97 | 1007.9 |
| 20260905022950 | 67 | 72 | 0.0 | 0.0 | 0.00 | 0.50 | 0.50 | 97 | 1008.0 |
| 20260905022445 | 67 | 72 | 0.0 | 0.0 | 0.00 | 0.50 | 0.50 | 97 | 1008.0 |
| 20260905021941 | 67 | 74 | 0.0 | 0.0 | 0.00 | 0.50 | 0.50 | 96 | 1008.0 |
| 20260905021440 | 67 | 74 | 0.0 | 0.0 | 0.00 | 0.50 | 0.50 | 96 | 1007.9 |
| 20260905020936 | 68 | 71 | 0.0 | 0.0 | 0.00 | 0.50 | 0.50 | 95 | 1008.1 |
| 20260905020435 | 68 | 71 | 0.0 | 0.0 | 0.00 | 0.50 | 0.50 | 95 | 1008.2 |
| 20260905015930 | 68 | 72 | 0.0 | 0.0 | 0.00 | 0.50 | 0.50 | 94 | 1008.0 |
| 20260905015428 | 69 | 72 | 0.0 | 0.0 | 0.00 | 0.50 | 0.50 | 94 | 1008.0 |
| 20260905014927 | 69 | 65 | 0.0 | 0.0 | 0.00 | 0.50 | 0.50 | 94 | 1007.8 |
| 20260905014423 | 69 | 65 | 0.0 | 0.0 | 0.00 | 0.50 | 0.50 | 93 | 1007.9 |
| 20260905013918 | 69 | 53 | 0.0 | 0.0 | 0.00 | 0.50 | 0.50 | 91 | 1007.8 |
| 20260905013415 | 69 | 43 | 0.0 | 1.0 | 0.00 | 0.50 | 0.50 | 91 | 1007.6 |
| 20260905012910 | 69 | 30 | 0.0 | 1.0 | 0.00 | 0.50 | 0.50 | 91 | 1007.8 |
| 20260905012405 | 69 | 15 | 1.0 | 1.0 | 0.00 | 0.50 | 0.50 | 91 | 1007.8 |
| 20260905011902 | 69 | 19 | 1.0 | 1.0 | 0.00 | 0.50 | 0.50 | 93 | 1007.8 |
| 20260905011357 | 69 | 47 | 0.0 | 0.0 | 0.00 | 0.50 | 0.50 | 94 | 1007.9 |
| 20260905010853 | 69 | 83 | 0.0 | 0.0 | 0.00 | 0.50 | 0.50 | 92 | 1008.0 |
| 20260905010347 | 69 | 73 | 0.0 | 0.0 | 0.00 | 0.50 | 0.50 | 91 | 1007.9 |
| 20260905005843 | 69 | 68 | 0.0 | 0.0 | 0.00 | 0.50 | 0.50 | 90 | 1008.0 |